Archival Weather

Aeroparque Jorge Newbery

Aeroparque Jorge Newbery, Argentina (SABE)

Report from: Saturday, May 14, 2022 5:00 AM -03
Current time: Sunday, June 26, 2022 1:57 PM -03

Current weather
Weather history
Weather forecast

Temperature15.0°C (59.0°F)
Dew point10.0°C (50.0°F)
Winds 2 kts (1 m/s, 2.3 mph) Vrb
Winds variableWinds variable
Clouds Sky clear
Altimeter30.09 in.Hg (1019 mB)
Relative humidity72 %
Density altitude-20 ft. (-6 m)
Remarks Ceiling and visibility OK
Corrected report
No significant changes expected in the next two hours
Flight conditions Visual Meteorological Conditions
Raw dataCOR SABE 140800Z VRB02KT CAVOK 15/10 Q1019 NOSIG
An error has occurred. This application may no longer respond until reloaded. Reload 🗙